Location: Launay
(47.2429°N, 1.5727°E)
Time: 16:54:30
(UTC+00:00)

SeaSat 1 - Pass Details

Date: 19 May 2025
Orbit: 738 x 740 km, 108.0° (Epoch: 12 June)

Event Time Altitude Azimuth Distance (km) Brightness Sun altitude
Exits shadow 23:16:21 19° 242° (WSW) 1,691 4.1 -22.3°
Maximum altitude 23:17:07 20° 255° (WSW) 1,660 4.1 -22.4°
Drops below altitude 10° 23:20:43 10° 302° (WNW) 2,256 5.4 -22.4°
Sets 23:23:34 0° 319° (NW) 3,185 6.6 -22.5°
